Preview of NWS' New Version of Forecast
This preview is not operational and should not be used for support decisions.
Latest weather observations around

Fort Myers, Page Field (KFMY)

Using International System of Units (Switch to English Units)
Date/ Time (EDT) Wind (kph) Vis. (km) Weather Sky Cond. Temp (°C) Rel. Humidity Wind Chill (°C) Heat Index (°C) Pressure Precip. (cm)
Air Dwpt 6 hour Altimeter (hPa) Sea level (hPa) 1 hr 3 hr 6 hr
Max Min
Apr 22 15:53 S 5 16.09 Clear CLR 27 11     35%   27 1019 1018.9      
Apr 22 14:53 ESE 8 16.09 Clear CLR 27 11     35%   27 1019.3 1019.6      
Apr 22 13:53 ENE 15 16.09 Clear CLR 27 11     36%   26 1020.3 1020.4      
Apr 22 12:53 9 16.09 Clear CLR 26 10     37%   25 1020.7 1020.9      
Apr 22 11:53 NE 11 16.09 Clear CLR 25 11     42%   25 1021.3 1021.6      
Apr 22 10:53 E 13 16.09 Clear CLR 24 12     48%   24 1021.7 1021.9      
Apr 22 09:53 ENE 13 16.09 Clear CLR 22 13     59%   21 1021.7 1021.7      
Apr 22 08:53 ENE 9 16.09 Clear CLR 19 13     68%     1021.7 1021.7      
Apr 22 07:53 ENE 11 16.09 Clear CLR 16 12     75%     1021.7 1021.6      
Apr 22 06:53 NE 13 16.09 Clear CLR 14 11     81%     1020.7 1020.9      
Apr 22 05:53 NE 8 16.09 Clear CLR 14 11     81%     1020.3 1020.4      
Apr 22 04:53 NE 8 16.09 Clear CLR 14 10     77%     1020 1020      
Apr 22 03:53 NNE 11 16.09 Clear CLR 15 9     69%     1020 1020      
Apr 22 02:53 NNE 13 16.09 Clear CLR 16 8     60%     1020 1020.2      
Apr 22 01:53 N 18 16.09 Clear CLR 17 8     56%     1020.7 1020.7      
Apr 22 00:53 N 13 16.09 Clear CLR 18 8     54%     1021.3 1021.3      
Apr 21 23:53 NNW 11 16.09 Clear CLR 18 10     58%     1021.3 1021.6      
Apr 21 22:53 NW 9 16.09 Clear CLR 19 11     61%     1021.3 1021.4      
Apr 21 21:53 WNW 11 16.09 Clear CLR 20 11     57%     1020.7 1020.7      
Apr 21 20:53 WNW 11 16.09 Clear CLR 21 12     57%     1019.7 1019.9      
Apr 21 19:53 W 13 16.09 Clear CLR 21 12     55%     1019.3 1019.4      
Apr 21 18:53 WNW 15 16.09 Clear CLR 23 11     46%   23 1018.6 1018.9      
Apr 21 17:53 NW 15 16.09 Clear CLR 24 10     40%   24 1018.6 1018.9      
Apr 21 16:53 W 9 16.09 Clear CLR 25 9     36%   24 1018.6 1018.7      
Apr 21 15:53 WNW 11 16.09 Clear CLR 24 10     40%   24 1019 1019      
Apr 21 14:53 W 17 16.09 Clear CLR 25 11     40%   25 1019.7 1019.7      
Apr 21 13:53 NNW 9 16.09 Clear CLR 24 11     43%   24 1020 1020.2      
Apr 21 12:53 WNW 11 16.09 Clear CLR 24 11     43%   23 1020.7 1020.7      
Apr 21 11:53 NNW 17 16.09 Clear CLR 23 11     45%   23 1021 1021.1      
Apr 21 10:53 NNW 15 16.09 Clear CLR 23 11     46%   22 1021 1021      
Apr 21 09:53 NNE 17 16.09 Clear CLR 21 9     47%     1020.3 1020.6      
Apr 21 08:53 NNE 13 16.09 Partly Cloudy SCT060 20 10     53%     1020 1020      
Apr 21 07:53 Calm 16.09 Clear CLR 17 13     78%     1019.7 1019.6      
Apr 21 06:53 Calm 16.09 Mostly Cloudy BKN049 16 13     81%     1019 1019      
Apr 21 05:53 Calm 16.09 Partly Cloudy SCT070 16 13     83%     1018.3 1018.4      
Apr 21 04:53 Calm 16.09 Partly Cloudy SCT070 17 14     84%     1017.6 1017.8      
Apr 21 03:53 Calm 16.09 Mostly Cloudy SCT060 BKN070 17 13     78%     1017.3 1017.4      
Apr 21 02:53 NE 8 16.09 Cloudy BKN055 OVC075 17 13     78%     1017.3 1017.4      
Apr 21 01:53 SSE 5 16.09 Clear CLR 16 12     78%     1017.6 1017.7      
Apr 21 00:53 Calm 16.09 Partly Cloudy SCT075 17 12     75%     1018 1018      
Apr 20 23:53 S 8 16.09 Mostly Clear FEW080 17 12     70%     1018 1018.1      
Apr 20 22:53 SSE 5 16.09 Clear CLR 17 11     70%     1017.6 1017.9      
Apr 20 21:53 SW 5 16.09 Clear CLR 18 11     61%     1017.6 1017.6      
Apr 20 20:53 W 9 16.09 Clear CLR 19 9     54%     1016.9 1017      
Apr 20 19:53 NW 17 16.09 Clear CLR 19 9     52%     1016.3 1016.5      
Apr 20 18:53 WNW 15 16.09 Clear CLR 21 9     46%     1016.3 1016.2      
Apr 20 17:53 NW 24 16.09 Partly Cloudy SCT065 22 9     45%   21 1015.9 1016.1      
Apr 20 16:53 NW 33 16.09 Mostly Clear and Windy FEW065 23 11     46%   22 1015.6 1015.7      
Apr 20 15:53 NW 26 16.09 Partly Cloudy SCT050 23 10     43%   23 1015.6 1015.8      
Apr 20 14:53 NW 26 16.09 Partly Cloudy SCT048 23 11     46%   23 1015.9 1016.1      
Apr 20 13:53 NW 26 16.09 Mostly Cloudy BKN045 23 12     50%   23 1016.3 1016.4      
Apr 20 12:53 WNW 28 16.09 Partly Cloudy SCT044 SCT055 24 13     52%   24 1016.3 1016.4      
Apr 20 11:53 W 30 16.09 Partly Cloudy SCT045 SCT050 SCT070 24 13     48%   24 1016.6 1016.6      
Apr 20 10:53 W 26 16.09 Cloudy SCT041 BKN065 OVC075 23 13     55%   23 1016.6 1016.6      
Apr 20 09:53 WNW 32 16.09 Mostly Cloudy and Windy FEW041 BKN050 23 13     53%   23 1015.9 1016      
Apr 20 08:53 WNW 22 16.09 Mostly Clear FEW050 22 13     57%   22 1015.2 1015.2      
Apr 20 07:53 W 18 16.09 Clear CLR 21 12     55%     1014.2 1014.5      
Apr 20 06:53 W 18 16.09 Mostly Cloudy BKN070 21 13     61%     1013.9 1014.1      
Apr 20 05:53 W 24 16.09 Cloudy OVC065 21 11     53%     1012.9 1013.1      
Apr 20 04:53 W 15 16.09 Cloudy OVC060 21 13     61%     1012.5 1012.8      
Apr 20 03:53 W 11 16.09 Mostly Cloudy BKN060 20 13     65%     1012.5 1012.6      
Apr 20 02:53 WNW 9 16.09 Mostly Cloudy BKN055 20 13     65%     1012.5 1012.7      
Apr 20 01:53 WNW 11 16.09 Cloudy OVC050 21 13     63%     1012.9 1012.9      
Apr 20 00:53 W 13 16.09 Mostly Clear FEW050 20 13     65%     1013.2 1013.4      
Apr 19 23:53 W 13 16.09 Mostly Cloudy BKN048 20 13     65%     1013.9 1013.9      
Apr 19 22:53 W 13 16.09 Clear CLR 21 13     63%     1013.9 1013.9      
Apr 19 21:53 WNW 15 16.09 Partly Cloudy SCT040 SCT050 22 14     61%   22 1012.9 1012.9      
Apr 19 20:53 WNW 13 16.09 Partly Cloudy FEW038 SCT070 22 14     63%   22 1011.5 1011.7      
Apr 19 20:03 WNW 18 16.09 Cloudy FEW021 BKN060 OVC080 22 18     76%   22 1010.2        
Apr 19 19:53 WNW 28 16.09 Mostly Cloudy BKN023 BKN075 22 20     87%   23 1010.2 1010.3 0   2
Apr 19 19:50 WNW 26 16.09 Mostly Cloudy BKN021 BKN027 BKN080 22 20     88%   23 1010.2   0    
Apr 19 18:53 W 17 16.09 Mostly Cloudy BKN055 BKN070 22 21     93%   23 1009.5 1009.8 0    
Apr 19 18:00 W 24 16.09 Light Rain FEW045 BKN095 OVC110 21 21     97%     1008.8   0    
Apr 19 17:53 W 24 16.09 Light Rain SCT049 BKN070 OVC110 21 21     97%     1008.8 1009.1 2    
Apr 19 17:40 W 30 8.05 Light Rain and Fog/Mist SCT031 BKN070 OVC100 21 21     97%     1009.5   2    
Apr 19 17:32 WSW 33 4.83 Thunderstorms and Rain and Fog/Mist BKN029 OVC070 21 21     97%     1009.8   1    
Apr 19 17:25 W 35 2.01 Thunderstorms and Heavy Rain and Fog/Mist FEW011 OVC025 21 21     97%     1009.5   1    
Apr 19 17:15   1.21 Thunderstorms and Heavy Rain and Fog/Mist FEW011 BKN016 OVC045 21 21     97%     1010.2   1    
Apr 19 17:04   2.41 Thunderstorms and Heavy Rain and Fog/Mist BKN013 BKN019 OVC045 22 21     93%   22 1010.2   0    
Apr 19 17:02   4.02 Thunderstorms and Heavy Rain and Fog/Mist SCT013 BKN019 OVC045 22 21     91%   23 1010.5   0    
Apr 19 16:53 SW 28 12.87 Cloudy SCT014 BKN019 OVC100 26 24     88%   28 1009.5 1009.6 0 0  
Apr 19 16:49 SW 28 12.87 Cloudy BKN014 BKN019 OVC100 26 24     89%   28 1009.2   0    
Apr 19 16:42 SW 24 11.27 Light Rain BKN017 OVC024 26 24     88%   28 1009.2   0    
Apr 19 16:24 SSW 26 12.87 Thunderstorms BKN017 OVC026 26 23     85%   28 1009.2        
Apr 19 16:12 SSW 33 14.48 Cloudy and Windy BKN017 BKN022 OVC029 26 23     85%   28 1008.5        
Apr 19 15:53 S 24 16.09 Mostly Cloudy SCT017 BKN024 BKN029 27 23     82%   29 1008.8 1008.9      
May 14 11:53 SSW 9 8.05 Light Rain and Fog/Mist SCT100 OVC120 24 22     90%   25 1013.6 1013.8 0    
May 14 05:53 SE 8 12.87 Light Rain SCT006 BKN011 OVC030 22 21     96%   22 1013.6 1013.6 0    
May 13 13:07 E 13 14.48 Clear   24 22     88%   25 1016.9   0    
Notice The following observation data may not be complete
May 12 19:53   16.09 Clear CLR          %              
May 12 16:53 ENE 21 16.09 Clear CLR 28 17     51%   29 1017.3 1017.3      
May 12 12:53 NE 11 12.87 Cloudy OVC100 27 18     58%   28 1020 1020      
May 12 05:53 Calm 11.27 Clear CLR 22 17     71%   22 1018.3 1018.4 0    
May 12 02:53 Calm 11.27 Clear CLR 23 16     62%   23 1018.3 1018.4      
May 12 01:53 Calm 9.66 Haze CLR 24 14     55%   24 1018.6 1018.9      
May 12 00:53 S 5 11.27 Clear CLR 25 14     50%   25 1019.3 1019.5      
Jun 11 18:29 E 18 14.48 Clear   24 22     88%   25 1018.3   0    
Jun 11 17:32 5 9.66 Cloudy SCT048 BKN090 OVC110 28 24     77%   32 1017.6   0    
Jun 11 15:53 SE 15 16.09 Clear   32 25     66%   39 1018.3 1018.5      
Jun 11 06:44 E 8 9.66 Fog/Mist SCT005 25 25     100%   26 1018.6        
Jun 10 22:53 E 8 16.09 Clear   24 24     100%   25 1018.6 1018.7      
Jun 10 00:18 Calm 16.09 Light Rain BKN024 OVC034 26 24     90%   28 1014.6   0    
Jun 09 21:53 SSW 5 16.09 Clear CLR 28 22     69%   30 1013.9 1014.2      
Jun 09 07:53 ENE 15 12.87 Mostly Cloudy BKN006 24 23     96%   25 1012.5 1012.7      
Notice The following observation data may not be complete
Jun 06 14:53     Clear            %     1008.1 1008.4 0    
Notice The following observation data may not be complete
Jun 06 13:43   16.09 Cloudy FEW011 OVC017          %         0    
Jun 05 16:53 NNW 11 16.09 Cloudy FEW010 BKN041 OVC110 24 24     97%   25 1012.5 1012.7 0 1